Terug naar catalogus

STARLINK-34654

ActiefCommunicatieSSO
NORAD 64858·PAYLOAD·🇺🇸 United States

Gelanceerd Jul 19, 2025 vanaf Vandenberg Space Force Base

Loading…

Volgende Passages (komende 24 uur)

TLE

VersSource: CelesTrak SupGP

Epoch: Sep 15, 2026, 03:02 UTC

1 64858C 25152S   26258.12687500 -.00020647  00000+0 -64082-3 0  2589
2 64858  97.2842 108.7222 0001891  95.8516  69.6270 15.33454489    17

Volg STARLINK-34654 in realtime met AllMySat

Download on the App Store